This is the latest recevied weather packets stored in our database for station/object KI6PPU. If no packets are shown the sender has not sent any weather packets the latest 10 day(s).
| Time | Temp. | Humidity | Pressure | Rain* | Wind** | Luminosity | Snow |
|---|---|---|---|---|---|---|---|
| 1777670943 | 26.11° C | 58% | 1016.3 hPa | 0 mm | - | 736 W/m² | - |
| 1777670641 | 26.11° C | 60% | 1016.2 hPa | 0 mm | - | 586 W/m² | - |
| 1777670338 | 25.56° C | 56% | 1016.3 hPa | 0 mm | - | 586 W/m² | - |
| 1777670035 | 25.56° C | 55% | 1016.1 hPa | 0 mm | - | 400 W/m² | - |
| 1777669732 | 26.67° C | 52% | 1016.3 hPa | 0 mm | - | 274 W/m² | - |
| 1777669429 | 26.11° C | 58% | 1016.4 hPa | 0 mm | - | 732 W/m² | - |
| 1777669126 | 26.11° C | 56% | 1016.2 hPa | 0 mm | - | 685 W/m² | - |
| 1777668822 | 26.67° C | 55% | 1016.1 hPa | 0 mm | - | 662 W/m² | - |
| 1777668519 | 26.67° C | 57% | 1016.2 hPa | 0 mm | - | 543 W/m² | - |
| 1777668216 | 25.56° C | 57% | 1016.4 hPa | 0 mm | - | 734 W/m² | - |
| 1777667912 | 25.56° C | 53% | 1016.2 hPa | 0 mm | - | 747 W/m² | - |
| 1777667609 | 26.11° C | 55% | 1016.4 hPa | 0 mm | - | 733 W/m² | - |
| 1777667306 | 25.56° C | 58% | 1016.4 hPa | 0 mm | - | 788 W/m² | - |
| 1777667003 | 26.11° C | 54% | 1016.4 hPa | 0 mm | - | 657 W/m² | - |
| 1777666694 | 25.56° C | 59% | 1016.4 hPa | 0 mm | - | 623 W/m² | - |
| 1777666391 | 25.56° C | 49% | 1016.5 hPa | 0 mm | - | 656 W/m² | - |
| 1777666088 | 26.11° C | 51% | 1016.4 hPa | 0 mm | - | 621 W/m² | - |
| 1777665784 | 26.11° C | 48% | 1016.4 hPa | 0 mm | - | 773 W/m² | - |
| 1777665483 | 25.56° C | 53% | 1016.3 hPa | 0 mm | - | 773 W/m² | - |
| 1777665178 | 26.11° C | 58% | 1016.4 hPa | 0 mm | - | 710 W/m² | - |
| 1777664874 | 26.11° C | 50% | 1016.4 hPa | 0 mm | - | 666 W/m² | - |
| 1777664570 | 26.11° C | 51% | 1016.5 hPa | 0 mm | - | 488 W/m² | - |
| 1777664267 | 26.11° C | 53% | 1016.5 hPa | 0 mm | - | 728 W/m² | - |
| 1777663965 | 25.56° C | 55% | 1016.4 hPa | 0 mm | - | 729 W/m² | - |
| 1777663662 | 26.67° C | 55% | 1016.4 hPa | 0 mm | - | 663 W/m² | - |
* Rain latest hour (hover to see other rain measurements)
** Current wind speed in m/s (hover to see current wind gust speed)